Location: Newark
(44.1667°N, 8.2500°E)
Time: 07:41:03
(UTC+00:00)

S-56A Canister/Altair - Pass Details

Date: 10 December 2019
Orbit: 634 x 2498 km, 38.9° (Epoch: 28 January)

Event Time Altitude Azimuth Distance (km) Brightness Sun altitude
Rises 07:50:08 0° 203° (SSW) 5,422 12.1 7.6°
Reaches altitude 10° 07:53:59 10° 194° (SSW) 4,649 12.0 8.1°
Maximum altitude 08:05:12 32° 138° (SE) 3,586 12.5 9.6°
Drops below altitude 10° 08:17:28 10° 84° (E) 5,127 12.3 11.1°
Sets 08:21:55 0° 76° (ENE) 6,043 12.5 11.6°
